Date,TemperatureHighF,TemperatureAvgF,TemperatureLowF,DewpointHighF,DewpointAvgF,DewpointLowF,HumidityHigh,HumidityAvg,HumidityLow,PressureMaxIn,PressureMinIn,WindSpeedMaxMPH,WindSpeedAvgMPH,GustSpeedMaxMPH,PrecipitationSumIn
2012-3-27,70.0,61.6,52.3,52.1,40.0,33.7,53,46,36,29.90,29.88,6,4,11,0.08
2012-3-28,59.2,49.3,44.1,40.1,36.5,32.3,65,61,47,29.93,29.79,18,8,30,0.02
2012-3-29,46.8,40.5,34.7,34.4,31.0,26.8,76,69,61,30.11,29.93,11,4,15,0.00
2012-3-30,39.9,35.9,34.3,36.0,31.7,26.6,97,85,73,30.07,29.69,21,4,31,0.39
2012-3-31,43.9,38.4,34.0,34.9,33.0,30.7,97,82,67,29.95,29.83,7,2,11,0.00
2012-4-1,54.1,44.4,35.8,45.7,39.3,30.7,94,83,71,29.88,29.66,9,3,13,0.00
2012-4-2,57.4,44.9,34.3,38.7,35.0,32.4,93,71,45,30.01,29.82,11,3,14,0.00
2012-4-3,65.7,48.4,36.3,52.0,40.0,27.3,89,73,59,30.01,29.78,14,2,21,0.09
2012-4-4,61.0,51.0,39.0,47.8,34.7,23.6,94,59,25,29.91,29.84,12,3,16,0.00
2012-4-5,50.4,41.1,34.3,32.7,28.9,24.6,82,63,46,30.68,29.90,11,4,17,0.00
2012-4-6,60.3,45.2,31.8,34.4,27.0,23.0,75,52,25,30.23,30.09,8,2,12,0.00
2012-4-7,65.7,49.1,30.7,36.8,28.0,22.6,91,50,21,30.28,30.10,11,2,14,0.00
2012-4-8,60.6,53.4,48.6,44.6,32.0,21.3,83,47,23,30.10,29.98,24,8,34,0.00
2012-4-9,60.6,49.0,36.9,40.6,29.8,15.7,92,53,23,29.98,29.76,23,7,37,0.00
2012-4-10,45.0,39.8,35.4,34.2,28.7,22.7,82,65,46,29.95,29.79,16,7,22,0.00
2012-4-11,53.4,42.2,33.8,35.8,30.6,24.7,86,65,38,30.16,29.93,12,4,18,0.00
2012-4-12,59.9,49.1,33.3,38.5,31.6,25.4,87,54,31,30.18,30.10,10,2,13,0.00
2012-4-13,64.9,50.2,34.5,39.0,33.3,27.3,89,56,26,30.22,30.09,10,2,14,0.00
2012-4-14,65.3,54.4,45.3,57.2,47.3,35.5,94,77,65,30.10,29.86,14,4,23,0.07
2012-4-15,77.0,64.4,55.9,65.4,58.7,55.6,99,84,56,29.89,29.76,14,3,21,0.65
2012-4-16,70.7,63.0,46.6,61.4,51.6,37.4,86,67,51,30.12,29.62,24,8,35,0.08
2012-4-17,57.9,47.0,37.6,38.2,34.1,29.3,83,62,37,30.34,30.11,13,4,17,0.00
2012-4-18,62.4,48.5,33.8,42.6,36.4,29.1,86,65,44,30.32,29.99,14,4,17,0.00
2012-4-19,73.2,60.5,47.8,55.4,48.2,41.0,84,65,47,29.99,27.52,11,4,16,0.00
2012-4-20,73.4,53.1,37.6,52.9,46.2,37.3,99,80,45,30.01,29.80,15,4,22,0.20
2012-4-21,53.6,42.9,36.7,38.9,34.2,26.6,99,74,44,30.17,30.00,9,4,14,0.01
2012-4-22,51.6,42.6,33.8,35.8,28.3,21.6,88,60,33,30.15,30.06,16,4,24,0.00
2012-4-23,57.6,47.3,38.8,29.4,21.7,14.1,68,39,21,30.06,29.73,21,7,29,0.00
2012-4-24,61.2,49.6,39.6,32.2,23.7,17.3,57,38,22,29.83,29.64,23,9,34,0.00
2012-4-25,65.7,51.6,35.4,50.1,35.7,28.3,99,59,31,29.95,29.84,11,2,16,0.02
2012-4-26,57.4,49.6,38.8,51.2,42.7,24.8,97,78,48,30.17,29.77,17,5,26,0.02
2012-4-27,56.8,43.4,31.3,30.5,23.5,16.7,74,49,23,30.34,30.17,11,3,16,0.00
2012-4-28,47.1,41.9,36.7,34.4,28.3,21.5,70,58,47,30.38,30.30,8,3,13,0.00
2012-4-29,64.6,47.1,27.3,33.5,22.5,12.4,90,44,20,30.47,30.34,9,2,13,0.00
2012-4-30,53.4,48.2,42.4,51.4,40.5,11.7,99,78,25,30.36,30.02,11,3,16,0.45
2012-5-1,62.4,53.8,49.8,53.3,51.1,49.6,99,91,71,30.20,30.03,8,2,11,0.02
2012-5-2,83.8,65.0,52.0,69.1,57.4,49.8,95,79,50,30.13,29.97,12,4,23,0.00
2012-5-3,89.1,74.2,62.1,69.2,63.3,57.8,97,72,42,30.16,30.00,17,4,26,0.48
2012-5-4,78.3,66.3,58.1,68.8,63.2,56.4,99,90,71,30.18,30.08,8,2,15,0.06
2012-5-5,74.1,61.7,54.7,57.0,52.9,50.4,94,74,48,30.25,30.11,8,3,14,0.00
2012-5-6,70.3,60.8,50.7,50.9,42.0,30.9,83,54,28,30.27,30.12,9,2,13,0.01
2012-5-7,63.3,56.6,49.8,60.4,53.7,44.8,99,90,72,30.19,29.93,8,2,11,0.38
2012-5-8,72.9,61.7,53.6,60.0,52.5,44.4,99,74,47,29.97,29.91,13,4,24,0.00
2012-5-9,64.6,54.9,48.0,52.4,47.5,43.6,98,77,52,30.00,29.90,13,3,20,0.14
2012-5-10,66.2,54.0,41.0,49.1,38.2,30.8,99,59,28,30.13,29.97,11,3,17,0.01
2012-5-11,75.9,60.6,43.7,43.5,40.2,34.3,85,51,26,30.30,30.13,9,3,14,0.00
2012-5-12,68.7,62.0,57.0,60.8,50.9,38.4,99,69,45,30.35,30.28,8,2,12,0.04
2012-5-13,73.8,60.1,49.1,59.5,52.7,44.2,99,79,49,30.38,30.25,6,1,9,0.18
2012-5-14,78.6,57.6,48.0,53.3,47.5,36.7,99,77,24,30.26,28.42,7,1,9,0.00
2012-5-15,82.2,67.4,48.0,52.3,45.6,36.4,82,49,26,29.94,29.76,11,2,17,0.00
2012-5-16,69.3,59.0,50.0,56.0,43.8,34.7,94,60,36,30.05,29.79,11,3,21,0.02
2012-5-17,71.8,56.6,40.8,45.8,40.3,35.2,90,58,28,30.13,30.04,8,2,11,0.00
2012-5-18,78.8,61.9,44.8,46.5,41.2,31.7,90,53,20,30.08,29.99,11,2,14,0.00
2012-5-19,86.4,71.0,50.2,55.2,48.8,41.7,83,49,23,30.07,30.01,10,2,15,0.00
2012-5-20,88.7,74.2,55.0,59.4,53.9,48.6,92,52,31,30.09,29.95,11,3,17,0.00
2012-5-21,77.2,67.2,57.7,64.7,58.7,51.3,99,75,53,29.96,29.92,11,3,17,0.06
2012-5-22,73.2,60.6,52.7,56.5,52.5,49.5,97,76,50,29.95,29.84,8,2,11,0.00
2012-5-23,80.6,64.0,47.7,58.1,52.5,47.2,99,71,31,29.89,29.78,9,2,12,0.01
2012-5-24,84.9,72.5,56.3,64.8,59.9,49.0,98,67,47,29.87,29.72,13,4,19,0.00
2012-5-25,85.8,76.5,63.9,66.5,59.3,48.5,75,57,29,30.04,29.77,14,4,20,0.00
2012-5-26,76.3,67.7,61.3,61.1,56.4,49.8,90,68,52,30.20,30.04,9,2,15,0.11
2012-5-27,84.2,70.9,60.1,65.7,58.9,51.7,83,67,50,30.08,29.88,14,4,21,0.00
2012-5-28,93.2,80.7,66.4,70.4,65.5,62.4,94,63,41,29.88,29.67,13,3,19,0.00
2012-5-29,82.2,76.5,66.9,66.7,56.8,42.6,84,54,26,29.75,28.91,14,4,21,0.00
2012-5-30,73.8,63.7,53.1,52.7,49.1,44.5,85,61,38,29.83,29.73,11,3,17,0.00
2012-5-31,64.4,56.1,49.8,51.2,48.4,45.9,92,76,58,29.96,29.82,9,3,13,0.01
2012-6-1,58.3,52.6,48.6,58.0,52.0,47.7,99,98,92,29.83,29.48,14,5,20,0.38
2012-6-2,72.3,58.6,47.8,51.8,47.0,39.3,99,69,31,29.99,29.57,18,6,26,0.01
2012-6-3,77.7,67.0,58.8,55.6,51.2,45.7,82,59,34,30.08,29.96,20,6,28,0.00
2012-6-4,72.7,61.9,52.0,56.0,53.2,50.9,98,75,52,30.21,30.05,9,2,13,0.00
2012-6-5,70.9,60.3,51.8,52.8,49.7,46.4,95,70,46,30.30,30.19,10,3,14,0.00
2012-6-6,78.6,63.1,46.9,55.5,49.7,42.1,99,67,30,30.34,30.28,10,2,14,0.00
2012-6-7,82.2,67.7,51.4,57.8,52.8,48.1,99,64,31,30.36,30.30,14,2,16,0.00
2012-6-8,84.6,71.1,56.1,59.1,53.1,47.4,86,57,33,30.34,30.20,12,3,20,0.00
2012-6-9,88.9,76.8,65.5,62.4,55.6,51.1,76,50,33,30.22,29.88,15,3,19,0.00
2012-6-10,91.6,77.8,60.4,62.1,57.4,53.6,91,54,30,30.05,29.94,11,2,14,0.00
2012-6-11,75.6,71.4,66.2,71.6,65.7,56.8,94,83,54,30.00,29.85,10,2,17,0.01
2012-6-12,78.6,72.1,61.3,69.6,58.9,48.1,99,67,37,30.10,29.79,16,5,24,0.00
2012-6-13,75.9,61.8,48.2,50.0,46.1,41.7,84,59,35,30.20,30.09,8,2,12,0.00
2012-6-14,81.0,65.2,48.4,55.9,48.8,41.7,91,59,31,30.21,30.14,10,3,15,0.00
2012-6-15,88.2,73.1,56.8,63.9,56.0,46.0,95,59,29,30.17,30.12,10,2,12,0.00
2012-6-16,87.3,76.5,63.9,69.0,63.2,59.4,93,65,44,30.19,29.96,13,4,20,0.00
2012-6-17,80.8,73.5,63.3,72.0,66.2,58.8,98,78,56,29.96,29.82,10,2,15,0.46
2012-6-18,81.1,70.1,57.6,71.3,63.1,55.5,99,80,54,29.91,29.80,12,3,20,0.24
2012-6-19,94.5,83.5,73.8,71.1,68.2,65.8,87,61,44,30.03,29.88,11,4,16,0.00
2012-6-20,93.0,83.2,73.6,67.9,64.7,61.0,75,55,38,30.11,29.93,13,3,23,0.00
2012-6-21,90.3,78.2,66.4,73.4,65.9,61.3,97,68,46,29.98,29.83,17,4,22,0.07
2012-6-22,83.8,71.3,61.9,66.4,60.6,52.1,99,73,38,29.99,29.92,9,2,15,0.01
2012-6-23,85.1,71.2,57.7,64.8,57.9,52.5,99,67,37,30.05,29.98,8,1,11,0.01
2012-6-24,85.8,75.1,65.5,65.2,61.1,57.6,79,63,45,30.06,29.89,9,2,14,0.00
2012-6-25,74.8,67.6,57.9,63.4,52.2,43.5,88,61,35,30.00,29.92,12,3,17,0.00
2012-6-26,82.8,67.7,50.5,57.5,50.5,45.1,99,60,28,30.01,29.91,11,2,14,0.00
2012-6-27,89.2,73.9,56.5,60.1,53.7,48.1,90,54,26,29.98,29.76,11,3,19,0.00
2012-6-28,97.9,83.8,64.9,76.7,64.6,51.6,75,53,43,29.82,26.66,12,3,17,0.00
2012-6-29,90.0,80.1,70.5,74.2,66.1,55.6,93,65,33,29.84,29.72,11,3,16,0.00
2012-6-30,91.6,78.7,65.8,67.8,64.3,61.4,91,64,41,29.81,29.72,13,4,20,0.00
2012-7-1,92.3,79.2,63.0,67.9,63.1,58.4,99,61,35,29.95,29.81,11,2,16,0.00
2012-7-2,96.1,80.8,65.3,69.2,65.8,60.4,99,65,33,29.99,29.90,7,2,11,0.00
2012-7-3,86.4,76.2,70.7,75.4,71.0,67.3,96,84,67,29.93,29.77,18,3,24,0.48
2012-7-4,98.8,83.9,70.2,77.0,71.8,65.2,98,70,41,29.85,29.77,13,4,18,0.00
2012-7-5,88.2,79.4,68.7,75.9,71.9,64.6,96,78,62,29.94,27.45,17,2,30,0.24
2012-7-6,101.1,87.0,73.0,77.7,73.8,70.9,95,68,41,29.95,29.88,8,2,10,0.00
2012-7-7,96.3,85.0,74.1,77.3,74.4,64.3,94,72,51,29.95,29.86,11,2,14,0.04
2012-7-8,86.2,76.8,68.0,64.3,60.7,56.1,76,58,42,30.74,29.88,9,2,14,0.00
2012-7-9,86.7,73.2,60.3,65.1,61.9,57.8,96,70,44,29.96,29.87,11,2,15,0.00
2012-7-10,85.8,74.5,63.1,65.5,57.9,52.5,90,59,35,30.03,29.91,11,2,17,0.00
2012-7-11,86.4,73.3,57.6,63.0,55.9,50.0,98,59,33,30.07,30.00,8,2,11,0.00
2012-7-12,88.9,74.8,58.3,65.0,57.6,52.6,99,60,30,30.05,29.97,8,1,10,0.00
2012-7-13,91.4,79.2,64.2,69.7,63.5,58.2,93,62,34,30.03,29.96,13,2,17,0.00
2012-7-14,90.0,77.5,65.3,71.6,66.4,62.6,96,71,44,30.01,29.91,8,3,12,0.00
2012-7-15,92.5,80.8,71.1,72.3,69.4,63.3,95,71,42,29.95,29.83,11,3,17,0.00
2012-7-16,95.4,82.4,68.2,73.4,68.4,63.1,99,66,36,29.91,29.74,10,2,16,0.00
2012-7-17,98.8,87.0,75.4,73.7,69.0,64.7,82,57,35,29.77,29.66,14,4,22,0.00
2012-7-18,87.1,77.7,71.6,74.6,70.8,67.6,97,80,61,29.88,29.70,7,2,10,0.12
2012-7-19,76.5,70.5,65.7,70.4,66.7,63.3,99,88,71,29.87,29.81,9,3,16,0.20
2012-7-20,81.7,71.0,61.9,64.5,58.7,13.6,97,68,42,29.96,29.87,10,3,15,0.00
2012-7-21,89.6,73.6,57.2,65.9,60.3,56.1,99,67,36,30.00,29.90,9,2,13,0.00
2012-7-22,91.8,80.2,68.0,71.1,66.9,63.0,87,66,44,29.98,29.83,11,3,17,0.00
2012-7-23,95.7,84.1,72.9,71.6,69.2,65.8,87,63,43,29.88,29.65,17,5,23,0.01
2012-7-24,86.4,79.1,68.0,72.9,64.5,53.8,85,62,42,29.83,29.68,10,3,12,0.01
2012-7-25,90.5,75.9,57.7,74.9,60.5,51.1,85,60,41,29.83,29.47,11,3,17,0.00
2012-7-26,82.8,75.9,70.5,76.8,71.8,69.2,98,87,71,29.58,29.45,13,3,16,0.54
2012-7-27,84.2,70.7,64.6,71.7,68.1,62.2,99,92,57,29.75,29.57,23,2,30,0.81
2012-7-28,83.7,72.0,63.5,67.2,63.8,59.6,99,78,49,29.93,29.75,8,2,11,0.21
2012-7-29,85.8,72.4,58.5,62.6,59.0,55.0,99,67,37,29.94,29.85,8,2,11,0.00
2012-7-30,89.6,77.6,63.3,69.2,63.7,60.6,95,65,40,29.88,29.74,12,2,16,0.00
2012-7-31,85.8,75.3,64.8,71.1,66.9,64.1,99,76,54,29.78,29.66,10,3,17,0.06
2012-8-1,84.9,73.0,62.4,67.3,62.9,57.3,99,74,46,29.78,29.71,9,2,11,0.00
2012-8-2,90.0,75.5,60.3,74.0,64.6,58.1,96,72,42,29.75,29.67,8,2,12,0.00
2012-8-3,93.7,81.5,67.8,74.4,67.8,60.4,99,67,38,29.81,29.72,11,2,14,0.00
2012-8-4,90.9,79.9,70.7,75.2,70.6,64.8,94,74,54,29.82,29.64,12,3,19,0.02
2012-8-5,85.3,75.8,65.8,73.8,64.6,51.6,97,72,41,29.95,29.68,17,5,24,0.02
2012-8-6,85.5,70.7,54.7,60.8,54.5,47.7,99,61,31,30.00,29.85,8,1,12,0.00
2012-8-7,89.2,75.3,59.7,69.3,59.1,54.6,87,60,34,30.10,29.73,12,3,17,0.00
2012-8-8,87.1,75.8,67.3,67.5,62.7,55.7,95,67,40,30.01,29.95,10,2,12,0.00
2012-8-9,71.4,66.0,62.2,66.8,63.8,58.7,99,93,65,29.99,29.82,7,2,13,1.39
2012-8-10,74.1,65.2,59.5,66.7,63.2,59.3,99,94,73,29.82,29.65,9,3,15,0.93
2012-8-11,71.1,62.6,58.6,64.1,60.5,58.3,99,93,74,29.94,29.71,12,4,17,0.04
2012-8-12,79.7,68.2,59.0,62.7,59.9,56.5,99,77,49,29.99,29.91,11,3,13,0.00
2012-8-13,76.3,67.5,62.4,64.5,61.5,58.0,98,82,55,30.65,29.88,7,1,11,0.01
2012-8-14,79.2,67.6,60.8,65.5,62.1,58.1,99,84,50,29.89,29.82,6,1,11,0.40
2012-8-15,83.7,70.1,58.6,66.0,61.3,57.5,99,77,45,29.90,29.84,8,1,14,0.00
2012-8-16,81.9,71.7,63.1,67.6,64.7,61.8,99,80,54,29.92,29.73,14,3,17,0.00
2012-8-17,68.0,65.2,60.1,64.6,61.5,59.7,99,89,76,29.86,29.79,8,2,12,0.00
2012-8-20,77.7,68.3,60.3,55.4,52.9,49.7,84,60,42,29.99,29.92,6,1,9,0.00
2012-8-21,79.3,65.9,55.0,62.3,56.7,52.8,99,75,42,30.09,29.98,8,1,11,0.00
2012-8-22,82.6,67.9,55.6,64.1,56.6,52.4,99,72,37,30.13,30.06,8,1,11,0.00
2012-8-23,86.9,71.6,55.9,63.6,57.7,54.4,99,67,34,30.15,30.08,7,1,11,0.00
2012-8-24,90.1,76.2,63.0,66.7,62.5,56.0,96,66,33,30.13,30.04,9,2,16,0.00
2012-8-25,91.8,77.6,63.5,69.0,62.5,55.5,99,64,32,30.12,30.06,12,2,17,0.00
2012-8-26,88.3,76.5,66.4,68.4,64.6,61.8,97,69,45,30.14,30.00,13,3,19,0.02
2012-8-27,84.9,74.1,67.6,73.4,68.6,62.1,99,85,53,30.04,29.94,8,1,13,0.21
2012-8-28,79.2,69.6,60.8,63.7,59.9,56.4,98,74,48,30.09,29.92,12,2,17,0.00
2012-8-29,81.3,68.5,56.5,63.1,58.5,55.4,99,74,42,30.01,29.92,7,1,9,0.00
2012-8-30,86.0,72.1,61.2,63.2,59.4,56.1,94,67,38,29.99,29.88,11,2,17,0.00
2012-8-31,93.6,79.5,65.1,69.6,63.8,58.0,84,60,42,29.94,29.86,15,4,21,0.00
2012-9-1,86.0,75.8,66.0,69.2,59.6,55.4,86,58,40,30.01,29.91,6,2,11,0.00
2012-9-2,79.3,73.4,67.5,71.3,64.8,56.7,92,75,55,29.95,29.85,11,2,16,0.11
2012-9-3,89.4,76.8,64.4,72.8,67.6,61.0,92,75,50,29.88,29.77,8,2,11,0.00
2012-9-4,83.1,73.4,67.3,72.4,70.0,67.0,99,90,66,29.82,29.74,8,1,14,0.08
2012-9-5,80.2,72.1,64.9,72.9,69.1,64.7,99,91,73,29.78,29.67,10,2,16,0.02
2012-9-6,86.4,74.1,66.7,68.8,65.4,61.6,99,77,45,29.80,29.69,8,1,11,0.00
2012-9-7,81.5,71.1,59.7,68.0,62.6,57.0,99,76,44,29.96,29.72,10,3,15,0.08
2012-9-8,70.9,62.2,55.8,61.0,54.8,49.6,99,79,53,29.88,29.68,14,5,24,0.47
2012-9-9,72.3,60.4,50.7,56.4,50.6,43.8,99,74,38,30.13,29.88,11,2,16,0.00
2012-9-10,75.2,60.3,46.8,53.6,48.5,41.8,99,70,35,30.25,30.13,8,1,11,0.00
2012-9-11,81.0,67.5,55.0,56.9,52.9,48.5,82,62,41,30.25,30.17,11,3,18,0.00
2012-9-12,85.3,70.6,56.1,59.8,55.4,51.3,87,61,36,30.26,30.19,14,2,17,0.00
2012-9-13,84.4,72.1,63.9,63.0,58.5,50.8,91,65,34,30.29,30.20,12,3,20,0.00
2012-9-14,72.7,61.6,53.6,61.4,53.4,45.4,99,78,40,30.31,30.25,13,3,17,0.47
2012-9-15,73.4,59.5,45.7,54.9,48.8,44.9,99,71,39,30.36,30.19,8,1,11,0.00
2012-9-16,77.5,64.1,50.4,56.2,50.5,47.1,95,64,35,30.20,30.05,10,2,14,0.00
2012-9-17,77.5,67.1,56.3,61.9,53.2,47.2,92,62,41,30.07,29.75,11,2,15,0.05
2012-9-18,64.2,57.6,46.6,63.0,51.0,36.8,98,80,55,29.99,29.65,15,5,23,0.05
2012-9-19,68.2,53.9,39.9,44.9,39.8,35.9,99,64,33,30.12,29.99,11,3,117,0.00
2012-9-20,70.0,59.7,51.1,56.8,47.3,39.7,82,64,50,30.01,29.87,11,3,21,0.00
2012-9-21,70.9,57.3,47.3,52.4,45.4,37.0,98,69,31,29.95,29.81,11,3,20,0.12
2012-9-22,58.5,52.0,45.1,51.4,48.0,43.6,99,87,65,30.07,29.74,12,4,18,0.02
2012-9-23,58.3,49.3,42.4,47.2,42.1,35.5,99,78,46,30.21,30.07,14,3,21,0.01
2012-9-24,64.9,51.7,37.8,42.3,38.0,33.4,99,65,32,30.21,29.94,15,4,22,0.00
2012-9-25,69.1,58.4,46.9,56.9,46.8,35.8,99,66,47,29.97,29.88,9,2,17,0.00
2012-9-26,69.8,61.6,52.5,64.7,58.0,46.6,99,89,61,30.17,29.91,6,1,9,0.01
2012-9-27,67.8,56.6,49.1,47.4,44.7,40.6,88,66,45,30.25,30.17,12,2,17,0.00
2012-9-28,70.7,57.5,45.3,55.3,47.5,43.6,99,73,42,30.19,30.10,8,1,11,0.00
2012-9-29,72.1,57.0,44.8,51.2,46.1,40.2,99,72,33,30.11,29.96,8,2,11,0.00
2012-9-30,66.2,54.4,46.6,52.8,48.5,46.2,99,82,52,29.98,29.86,8,1,11,0.00
2012-10-1,68.5,47.4,42.3,49.6,44.1,42.0,99,90,45,30.01,29.88,6,0,8,0.00
2012-10-2,68.0,59.6,53.4,56.6,53.2,49.5,98,80,63,29.99,29.87,10,2,13,0.09
2012-10-3,66.4,61.0,56.5,61.9,57.5,54.5,99,89,73,30.13,29.95,9,2,12,0.02
2012-10-4,77.2,65.1,56.7,59.7,54.7,52.4,95,72,44,30.14,30.06,15,4,18,0.04
2012-10-5,61.9,53.3,43.7,60.9,49.0,42.1,99,86,67,30.13,30.00,12,4,18,0.15
2012-10-6,49.6,43.7,38.3,43.4,39.2,34.9,99,85,64,30.15,29.96,14,4,19,0.00
2012-10-7,47.3,42.3,37.6,41.1,38.0,35.3,99,85,64,30.18,30.11,7,1,10,0.01
2012-10-8,56.1,43.4,30.6,38.6,31.6,25.6,99,68,32,30.24,30.15,11,2,17,0.01
2012-10-9,62.8,49.6,36.9,40.7,36.0,30.3,85,61,40,30.16,29.88,14,4,23,0.00
2012-10-10,53.2,44.6,35.4,43.7,37.3,27.8,99,77,53,30.19,29.83,17,5,24,0.12
2012-10-11,62.2,47.0,33.4,42.9,33.0,28.8,84,62,32,30.22,30.06,16,4,25,0.00
2012-10-12,55.0,43.6,35.2,39.8,33.8,24.7,99,72,33,30.47,27.42,8,2,14,0.02
2012-10-13,61.2,44.4,32.9,60.6,42.1,29.9,99,92,76,30.42,29.94,12,3,15,0.63
2012-10-14,69.6,65.0,58.6,63.7,61.6,55.4,98,89,75,29.94,29.64,17,5,27,0.07
2012-10-15,58.6,48.9,44.8,55.4,45.0,41.2,97,86,77,30.29,29.85,20,7,29,0.01
2012-10-16,61.7,49.1,35.6,46.9,40.0,33.2,97,72,44,30.34,30.12,8,3,15,0.00
2012-10-17,74.8,61.6,50.9,57.5,49.8,45.7,99,68,40,30.14,29.94,14,4,21,0.30
2012-10-18,60.4,55.6,48.7,57.7,46.9,36.5,99,75,43,30.03,29.76,16,5,25,0.20
2012-10-19,56.5,49.2,44.6,46.1,42.7,37.7,97,79,58,30.03,29.91,12,3,19,0.12
2012-10-20,54.3,48.3,44.6,47.0,44.5,42.1,99,88,65,30.26,29.94,14,3,18,0.06
2012-10-21,63.9,50.2,39.2,48.3,42.9,38.9,99,79,44,30.46,30.26,8,2,12,0.01
2012-10-22,70.2,56.6,43.2,58.4,50.2,40.4,99,80,62,30.46,30.33,8,2,11,0.04
2012-10-23,67.8,61.9,59.0,63.2,60.3,56.3,99,95,84,30.38,30.27,8,2,11,0.35
2012-10-24,78.8,67.3,59.4,64.4,61.3,59.1,99,83,57,30.40,30.34,9,2,13,0.02
2012-10-25,78.1,67.7,56.8,61.1,56.7,54.0,91,69,47,30.37,30.23,14,4,24,0.00
2012-10-26,68.7,50.0,42.8,56.6,43.4,35.8,98,79,64,30.59,30.22,17,4,29,0.06
2012-10-27,54.7,45.2,38.3,40.8,35.9,32.6,89,71,44,30.57,30.49,10,3,17,0.00
2012-10-28,48.9,41.4,36.7,38.7,32.9,29.9,86,72,56,30.56,30.46,15,5,24,0.00
2012-10-29,42.3,40.7,37.4,35.5,32.3,28.4,85,72,60,30.46,30.06,18,8,32,0.01
2012-10-30,41.7,37.2,34.0,39.6,35.9,32.1,99,95,82,30.07,29.80,17,10,28,0.19
2012-10-31,41.9,38.2,35.2,40.8,37.2,34.6,99,96,91,30.00,29.85,15,7,21,0.01
2012-11-1,48.4,41.5,38.8,39.1,34.7,29.9,99,78,55,30.13,30.00,16,7,22,0.00
2012-11-2,41.0,39.3,35.6,33.0,30.8,28.1,80,72,64,30.41,30.12,12,5,18,0.00
2012-11-3,45.5,36.3,29.7,33.5,29.6,26.2,95,77,62,30.46,29.92,7,2,10,0.00
2012-11-4,40.1,33.0,26.8,29.4,26.0,22.4,85,76,62,29.96,29.88,9,1,12,0.00
2012-11-5,46.8,36.1,26.4,30.6,27.2,22.4,92,71,46,29.93,29.87,7,1,9,0.00
2012-11-6,44.2,35.3,27.7,31.0,27.0,21.1,87,72,55,29.88,29.70,9,2,13,0.00
2012-11-7,50.4,38.6,29.3,36.2,29.4,25.3,87,70,47,29.87,29.69,8,2,12,0.00
2012-11-8,50.4,36.6,24.8,35.5,29.4,21.8,94,76,52,29.94,29.85,5,1,8,0.00
2012-11-9,55.2,43.9,31.5,43.1,37.2,28.3,91,78,58,29.92,29.82,9,2,12,0.01
2012-11-10,61.9,52.5,44.8,49.9,46.7,42.4,97,82,63,29.87,29.76,9,3,13,0.01
2012-11-11,68.9,60.3,51.1,51.3,44.7,38.2,75,57,43,29.87,29.70,15,5,27,0.00
2012-11-12,61.7,45.3,33.3,54.4,38.4,22.5,99,79,44,29.96,29.63,19,6,30,0.47
2012-11-13,33.4,31.2,25.0,27.2,20.5,16.1,84,64,55,30.25,29.95,14,3,17,0.00
2012-11-14,41.9,31.5,21.7,28.5,22.9,16.2,90,71,53,30.29,30.14,8,1,11,0.00
2012-11-15,48.2,36.8,28.9,34.6,29.7,26.0,89,76,56,30.14,30.05,5,1,7,0.00
2012-11-16,54.7,37.3,25.9,38.9,29.8,22.8,93,76,44,30.22,30.07,5,1,8,0.00
2012-11-17,54.3,39.8,27.5,42.6,31.6,24.3,99,75,44,30.32,30.21,8,1,11,0.01
2012-11-18,54.5,43.1,35.6,47.8,37.8,31.0,99,83,44,30.26,29.81,7,2,11,0.00
2012-11-19,57.0,42.5,31.6,43.2,34.0,30.1,99,75,42,30.11,29.75,7,1,9,0.00
2012-11-20,59.0,46.8,41.2,44.3,40.6,36.1,94,80,52,29.77,29.68,4,1,7,0.02
2012-11-21,59.5,46.5,35.4,48.5,40.0,33.5,98,80,51,29.83,29.74,8,1,11,0.01
2012-11-22,61.9,50.2,40.6,46.3,42.7,39.0,95,77,51,29.76,29.44,11,3,20,0.06
2012-11-23,51.8,40.5,31.6,45.2,32.4,19.0,81,73,57,30.15,29.44,21,9,30,0.07
2012-11-24,32.5,30.7,28.9,20.7,17.9,16.2,64,59,51,30.91,30.15,19,8,22,0.00
2012-11-25,35.6,31.3,26.2,25.6,22.3,18.3,82,69,62,30.18,29.98,15,4,21,0.00
2012-11-26,34.0,31.9,29.8,23.2,20.0,15.8,70,61,53,30.43,30.15,11,3,14,0.00
2012-11-27,36.1,28.5,21.2,18.8,14.5,11.7,73,56,42,30.50,30.38,10,2,13,0.00
2012-11-28,40.5,31.3,26.4,24.4,17.9,12.7,66,57,49,30.46,30.33,16,4,20,0.00
2012-11-29,48.9,37.8,28.4,28.9,24.5,18.5,70,59,44,31.13,30.34,12,3,17,0.00
2012-11-30,43.5,37.8,33.6,37.8,31.3,25.4,87,77,65,30.42,30.30,11,3,14,0.00
2012-12-1,55.2,42.1,33.6,46.6,37.8,29.3,99,85,72,30.42,30.16,14,4,21,0.00
2012-12-2,55.8,52.8,48.6,54.2,50.0,46.4,97,90,72,30.29,30.08,11,3,18,0.24
2012-12-3,61.0,52.2,45.5,59.5,51.5,44.7,99,97,84,30.92,30.09,15,4,20,0.00
2012-12-4,61.2,51.2,41.0,56.1,45.4,31.3,94,81,63,30.27,30.08,15,5,21,0.27
2012-12-5,41.0,32.6,26.1,31.5,20.3,15.1,71,60,46,31.28,30.27,12,4,18,0.00
2012-12-6,38.3,32.2,25.7,29.4,24.0,18.3,80,71,61,30.50,30.13,8,3,118,0.00
2012-12-7,43.9,39.8,35.2,42.1,36.6,29.1,97,88,76,30.12,29.74,8,1,13,0.06
2012-12-8,41.2,37.0,33.4,40.4,34.4,28.0,98,90,79,30.14,29.80,8,2,115,0.12
2012-12-9,35.4,33.5,31.6,32.7,29.5,26.9,94,85,76,30.14,29.63,14,2,22,0.08
2012-12-10,39.0,35.1,30.4,38.4,31.0,20.7,99,85,65,29.83,29.58,11,4,14,0.00
2012-12-11,33.8,28.9,23.2,24.4,19.2,15.7,73,67,55,30.10,29.83,10,3,14,0.01
2012-12-12,44.4,32.5,23.4,25.5,21.5,17.4,81,65,42,30.32,30.10,11,3,15,0.00
2012-12-13,38.1,31.9,26.8,24.7,22.6,19.3,77,68,56,30.32,29.67,8,2,13,0.27
2012-12-14,49.6,37.3,29.5,33.7,27.3,21.9,85,67,53,29.95,29.87,6,1,9,0.00
2012-12-15,43.2,38.3,32.2,41.6,33.9,28.5,99,85,64,29.89,29.42,13,4,18,0.04
2012-12-16,53.1,47.4,42.4,49.6,44.9,38.6,97,91,77,29.42,29.32,11,3,14,0.05
2012-12-17,42.4,40.2,37.9,38.6,35.3,31.2,88,83,76,29.46,29.34,8,2,11,0.00
2012-12-18,41.7,36.8,32.0,31.7,28.9,25.4,86,73,56,29.48,29.35,11,3,15,0.00
2012-12-19,42.3,35.3,30.4,34.5,31.1,26.4,92,85,72,29.85,29.45,8,2,11,0.00
2012-12-20,45.3,39.3,32.7,44.0,36.1,29.3,96,88,78,29.81,28.89,19,8,27,0.74
2012-12-21,34.5,31.1,28.4,30.8,25.8,19.9,92,81,65,29.57,28.91,24,6,30,0.00
2012-12-22,33.6,29.3,26.1,22.3,19.3,16.2,79,66,57,29.78,29.57,21,7,30,0.01
2012-12-23,35.4,26.9,18.1,23.7,18.6,11.6,83,71,59,29.75,29.59,9,2,14,0.00
2012-12-24,32.2,26.5,19.9,25.7,20.0,13.5,88,76,68,29.72,29.52,11,3,17,0.00
2012-12-25,32.9,27.4,18.7,24.6,19.9,13.7,85,74,60,30.02,29.69,9,2,11,0.01
2012-12-26,29.3,27.7,24.8,25.6,22.2,20.4,87,80,70,29.98,29.56,18,7,27,0.01
2012-12-27,32.7,26.0,15.8,25.0,18.6,9.0,87,74,54,29.86,29.57,10,4,17,0.00
2012-12-28,31.6,20.7,10.4,24.2,14.6,4.7,83,77,69,29.87,29.65,4,1,6,0.00
2012-12-29,29.3,26.1,20.1,22.8,20.3,13.3,84,78,68,29.75,29.52,9,3,12,0.00
2012-12-30,28.9,23.2,15.6,22.3,16.1,8.4,83,74,65,29.99,29.75,11,3,16,0.00
2012-12-31,34.7,27.8,15.4,25.9,19.2,8.7,78,70,64,29.88,29.62,16,5,20,0.00
2013-1-1,38.1,23.0,10.2,19.7,9.5,-3.4,68,56,34,30.04,29.71,8,3,13,0.00